Zurück zum Katalog

IUS DEB

AktivHEO
NORAD 26076·DEBRIS·🇺🇸 United States

Gestartet Jul 23, 1999 von Cape Canaveral Space Force Station

Loading…

Nächste Überflüge (nächste 24 Stunden)

TLE

AktuellSource: Space-Track

Epoche: Sep 6, 2026, 03:32 UTC

1 26076U 99040E   26249.14763407  .00001186  00000-0  37046-3 0  9997
2 26076  28.4092  71.2039 4312651 193.7234 149.3608  6.70735093533519

Verfolge IUS DEB in Echtzeit mit AllMySat

Download on the App Store